Cocoa Beach, FL

9:29 AM EDT on August 16, 2017 (GMT -0400)
Cape Canaveral Air Station Skid Strip

Weather History for KXMR - January, 2014

Change the Weather History Date:

Wednesday, January 8, 2014

  Actual Average (KCOF) Record (KCOF)
Temperature  
Mean Temperature 58 °F -  
Max Temperature 67 °F 68 °F 84 °F (1997)
Min Temperature 50 °F 54 °F 39 °F (2002)
Degree Days  
Heating Degree Days 6    
Growing Degree Days 8 (Base 50)    
Moisture  
Dew Point 55 °F    
Average Humidity 78    
Maximum Humidity 95    
Minimum Humidity 65    
Precipitation  
Precipitation 0.00 in - - ()
Sea Level Pressure  
Sea Level Pressure 30.33 in    
Wind  
Wind Speed 9 mph (NE)    
Max Wind Speed 14 mph    
Max Gust Speed 20 mph    
Visibility 10 miles    
Events      
Averages and records for this station are not official NWS values.
T = Trace of Precipitation, MM = Missing Value Source: NWS Daily Summary

Daily Weather History Graph

Daily Weather History Graph

Search for Another Location

Airport or City:

Trip Planner

Search our weather history database for the weather conditions in past years. The results will help you decide how hot, cold, wet, or windy it might be!

Date:

Astronomy

Jan. 08, 2014 Rise Set
Actual Time 7:15 AM EST 5:42 PM EST
Civil Twilight 6:50 AM EST 6:07 PM EST
Nautical Twilight 6:21 AM EST 6:37 PM EST
Astronomical Twilight 5:52 AM EST 7:05 PM EST
Moon 12:18 PM EST (1/8) 12:37 AM EST (1/8)
Length of Visible Light 11h 17m
Length of Day
10h 26m
First Quarter, 56% of the Moon is Illuminated
Jan 8
First Quarter
Jan 15
Full
Jan 24
Last Quarter
Jan 30
New
Feb 6
First Quarter

Hourly Weather History & Observations

Time (EST) Temp. Dew Point Humidity Pressure Visibility Wind Dir Wind Speed Gust Speed Precip Events Conditions
12:58 AM 51.4 °F 48.6 °F 90% 30.35 in 10.0 mi North 12.7 mph 19.6 mph N/A   Clear
1:58 AM 52.3 °F 50.2 °F 92% 30.35 in 10.0 mi North 13.8 mph - N/A   Clear
2:58 AM 52.7 °F 50.7 °F 93% 30.34 in 10.0 mi North 9.2 mph - N/A   Clear
3:58 AM 52.5 °F 50.7 °F 94% 30.33 in 10.0 mi NNW 9.2 mph - N/A   Clear
4:58 AM 50.4 °F 49.1 °F 95% 30.32 in 10.0 mi NNW 3.5 mph - N/A   Clear
5:58 AM 57.4 °F 48.9 °F 73% 30.32 in 10.0 mi NE 8.1 mph - N/A   Scattered Clouds
6:58 AM 58.5 °F 48.7 °F 70% 30.33 in 10.0 mi NE 9.2 mph - N/A   Scattered Clouds
7:58 AM 59.9 °F 49.5 °F 68% 30.36 in 10.0 mi ENE 6.9 mph - N/A   Scattered Clouds
8:58 AM 61.2 °F 50.4 °F 68% 30.38 in 10.0 mi ENE 6.9 mph - N/A   Partly Cloudy
9:58 AM 63.9 °F 52.3 °F 66% 30.40 in 10.0 mi ENE 9.2 mph - N/A   Clear
10:58 AM 66.2 °F 54.0 °F 65% 30.39 in 10.0 mi ENE 6.9 mph 18.4 mph N/A   Clear
11:58 AM 67.6 °F 56.5 °F 67% 30.36 in 10.0 mi ENE 11.5 mph 18.4 mph N/A   Clear
12:58 PM 67.3 °F 56.8 °F 69% 30.32 in 10.0 mi East 10.4 mph - N/A   Clear
1:58 PM 67.1 °F 56.3 °F 68% 30.31 in 10.0 mi East 8.1 mph - N/A   Clear
2:58 PM 67.8 °F 57.2 °F 69% 30.31 in 10.0 mi ENE 9.2 mph 17.3 mph N/A   Clear
3:58 PM 66.2 °F 57.6 °F 74% 30.31 in 10.0 mi NE 8.1 mph - N/A   Clear
4:58 PM 65.3 °F 57.7 °F 76% 30.31 in 10.0 mi ENE 6.9 mph - N/A   Clear
5:58 PM 64.8 °F 58.3 °F 79% 30.31 in 10.0 mi ENE 5.8 mph - N/A   Partly Cloudy
6:58 PM 64.9 °F 58.8 °F 81% 30.30 in 10.0 mi East 5.8 mph - N/A   Scattered Clouds
7:58 PM 65.7 °F 59.7 °F 81% 30.31 in 10.0 mi ENE 6.9 mph - N/A   Clear
8:58 PM 65.8 °F 60.3 °F 82% 30.32 in 10.0 mi East 6.9 mph - N/A   Partly Cloudy
9:58 PM 66.0 °F 60.8 °F 83% 30.33 in 10.0 mi East 5.8 mph - N/A   Scattered Clouds
10:58 PM 66.4 °F 61.5 °F 84% 30.32 in 10.0 mi ENE 11.5 mph 17.3 mph N/A   Partly Cloudy
11:58 PM 66.2 °F 61.7 °F 85% 30.30 in 10.0 mi East 12.7 mph - N/A   Clear